NKS612 KBOS-KLGA

Flight info

Callsign NKS612
Flight time 0h 41m
Altitude 16000
Route PATSS7 PATSS NELIE VADDR1
Aircraft A321/M-SDE3FGHIRWY/LB1

Departure

Time 2026-05-06 14:53
Airport Boston Logan International Airport (KBOS)

Arrival

Time 2026-05-06 15:35
Airport LaGuardia Airport (KLGA)
Time Latitude Longitude Altitude Speed Heading
2026-05-06 14:16 42.36475 -71.01765 30 ft 0 kts 285°
2026-05-06 14:43 42.36471 -71.01749 31 ft 4 kts 285°
2026-05-06 14:43 42.36466 -71.01721 30 ft 3 kts 287°
2026-05-06 14:43 42.36458 -71.01686 28 ft 4 kts 286°
2026-05-06 14:43 42.36449 -71.01653 31 ft 4 kts 302°
2026-05-06 14:44 42.36440 -71.01625 31 ft 4 kts 245°
2026-05-06 14:44 42.36453 -71.01611 30 ft 4 kts 155°
2026-05-06 14:44 42.36467 -71.01634 31 ft 4 kts 121°
2026-05-06 14:45 42.36471 -71.01642 31 ft 0 kts 121°
2026-05-06 14:48 42.36451 -71.01599 28 ft 11 kts 121°
2026-05-06 14:48 42.36413 -71.01513 28 ft 11 kts 121°
2026-05-06 14:49 42.36395 -71.01415 27 ft 11 kts 63°
2026-05-06 14:49 42.36469 -71.01368 29 ft 12 kts 25°
2026-05-06 14:49 42.36568 -71.01302 29 ft 20 kts 25°
2026-05-06 14:49 42.36703 -71.01248 26 ft 17 kts 12°
2026-05-06 14:50 42.36806 -71.01282 26 ft 14 kts 339°
2026-05-06 14:50 42.36890 -71.01218 28 ft 15 kts 41°
2026-05-06 14:50 42.36973 -71.01124 27 ft 16 kts 37°
2026-05-06 14:50 42.37075 -71.01052 27 ft 17 kts 25°
2026-05-06 14:51 42.37185 -71.00981 26 ft 18 kts 25°
2026-05-06 14:51 42.37300 -71.00907 27 ft 19 kts 24°
2026-05-06 14:51 42.37426 -71.00847 28 ft 20 kts 19°
2026-05-06 14:51 42.37557 -71.00784 25 ft 20 kts 20°
2026-05-06 14:52 42.37692 -71.00718 27 ft 21 kts 20°
2026-05-06 14:52 42.37809 -71.00660 26 ft 15 kts 25°
2026-05-06 14:52 42.37824 -71.00540 25 ft 14 kts 109°
2026-05-06 14:52 42.37768 -71.00488 27 ft 12 kts 189°
2026-05-06 14:53 42.37601 -71.00565 27 ft 53 kts 199°
2026-05-06 14:53 42.37035 -71.00840 26 ft 117 kts 199°
2026-05-06 14:53 42.36142 -71.01275 281 ft 142 kts 198°
2026-05-06 14:53 42.35219 -71.01740 988 ft 143 kts 199°
2026-05-06 14:54 42.34222 -71.01731 1554 ft 153 kts 164°
2026-05-06 14:54 42.33375 -71.00691 1976 ft 181 kts 137°
2026-05-06 14:54 42.32545 -70.99251 2218 ft 206 kts 138°
2026-05-06 14:54 42.31695 -70.97597 2681 ft 226 kts 127°
2026-05-06 14:55 42.31249 -70.95458 3175 ft 248 kts 109°
2026-05-06 14:55 42.30709 -70.93222 3353 ft 252 kts 137°
2026-05-06 14:55 42.29362 -70.91879 3740 ft 237 kts 173°
2026-05-06 14:55 42.27768 -70.91710 4461 ft 228 kts 193°
2026-05-06 14:56 42.26264 -70.92343 5075 ft 227 kts 212°
2026-05-06 14:56 42.25083 -70.93725 5902 ft 228 kts 231°
2026-05-06 14:56 42.24412 -70.95691 6654 ft 236 kts 249°
2026-05-06 14:56 42.23973 -70.97838 7399 ft 239 kts 249°
2026-05-06 14:57 42.23536 -71.00007 8183 ft 240 kts 249°
2026-05-06 14:57 42.23098 -71.02187 8965 ft 241 kts 248°
2026-05-06 14:57 42.22656 -71.04380 9736 ft 243 kts 248°
2026-05-06 14:57 42.22207 -71.06604 10315 ft 252 kts 248°
2026-05-06 14:58 42.21719 -71.08980 10479 ft 274 kts 249°
2026-05-06 14:58 42.21186 -71.11556 10679 ft 294 kts 249°
2026-05-06 14:58 42.20632 -71.14258 11210 ft 302 kts 249°
2026-05-06 14:58 42.20073 -71.16999 11861 ft 305 kts 250°
2026-05-06 14:59 42.19511 -71.19774 12510 ft 309 kts 250°
2026-05-06 14:59 42.18941 -71.22583 13157 ft 313 kts 250°
2026-05-06 14:59 42.18360 -71.25430 13785 ft 316 kts 251°
2026-05-06 14:59 42.17772 -71.28304 14337 ft 320 kts 251°
2026-05-06 15:00 42.17176 -71.31214 14899 ft 324 kts 251°
2026-05-06 15:00 42.16574 -71.34154 15464 ft 327 kts 251°
2026-05-06 15:00 42.15972 -71.37085 16023 ft 331 kts 251°
2026-05-06 15:00 42.15352 -71.40089 16581 ft 335 kts 251°
2026-05-06 15:01 42.14723 -71.43127 17141 ft 338 kts 251°
2026-05-06 15:01 42.14078 -71.46238 17689 ft 342 kts 251°
2026-05-06 15:01 42.13443 -71.49305 18205 ft 346 kts 252°
2026-05-06 15:01 42.12787 -71.52484 18688 ft 349 kts 252°
2026-05-06 15:02 42.12141 -71.55609 19158 ft 352 kts 252°
2026-05-06 15:02 42.11478 -71.58796 19663 ft 355 kts 252°
2026-05-06 15:02 42.10807 -71.62003 20184 ft 357 kts 252°
2026-05-06 15:02 42.10133 -71.65226 20697 ft 359 kts 252°
2026-05-06 15:03 42.09454 -71.68471 21193 ft 362 kts 252°
2026-05-06 15:03 42.08778 -71.71749 21668 ft 365 kts 253°
2026-05-06 15:03 42.08193 -71.75083 21885 ft 367 kts 255°
2026-05-06 15:03 42.07695 -71.78437 21923 ft 364 kts 257°
2026-05-06 15:04 42.07239 -71.81777 21921 ft 362 kts 257°
2026-05-06 15:04 42.06789 -71.85112 21913 ft 362 kts 257°
2026-05-06 15:04 42.06329 -71.88439 21914 ft 362 kts 257°
2026-05-06 15:04 42.05856 -71.91760 21934 ft 361 kts 256°
2026-05-06 15:05 42.05371 -71.95076 21916 ft 361 kts 256°
2026-05-06 15:05 42.04876 -71.98386 21909 ft 361 kts 256°
2026-05-06 15:05 42.04380 -72.01690 21911 ft 361 kts 256°
2026-05-06 15:05 42.03882 -72.05000 21909 ft 361 kts 256°
2026-05-06 15:06 42.03387 -72.08301 21911 ft 361 kts 256°
2026-05-06 15:06 42.02889 -72.11607 21910 ft 361 kts 256°
2026-05-06 15:06 42.02389 -72.14913 21904 ft 361 kts 256°
2026-05-06 15:06 42.01890 -72.18216 21894 ft 360 kts 256°
2026-05-06 15:07 42.01390 -72.21521 21896 ft 360 kts 256°
2026-05-06 15:07 42.00890 -72.24821 21899 ft 361 kts 256°
2026-05-06 15:07 42.00387 -72.28128 21913 ft 360 kts 256°
2026-05-06 15:07 41.99884 -72.31420 21919 ft 359 kts 256°
2026-05-06 15:08 41.99381 -72.34703 21919 ft 358 kts 256°
2026-05-06 15:08 41.98879 -72.37979 21919 ft 358 kts 256°
2026-05-06 15:08 41.98375 -72.41252 21911 ft 357 kts 256°
2026-05-06 15:08 41.97869 -72.44523 21912 ft 357 kts 256°
2026-05-06 15:09 41.97364 -72.47790 21911 ft 357 kts 256°
2026-05-06 15:09 41.96860 -72.51053 21909 ft 356 kts 256°
2026-05-06 15:09 41.96527 -72.53212 21904 ft 356 kts 256°
2026-05-06 15:09 41.96026 -72.56467 21903 ft 356 kts 256°
2026-05-06 15:10 41.95520 -72.59725 21898 ft 356 kts 256°
2026-05-06 15:10 41.95017 -72.62949 21919 ft 355 kts 256°
2026-05-06 15:10 41.94525 -72.66107 21922 ft 355 kts 256°
2026-05-06 15:10 41.93796 -72.69352 21918 ft 352 kts 246°
2026-05-06 15:11 41.92657 -72.72257 21924 ft 352 kts 240°
2026-05-06 15:11 41.91432 -72.75097 21889 ft 351 kts 240°
2026-05-06 15:11 41.90210 -72.77932 21890 ft 351 kts 241°
2026-05-06 15:11 41.88993 -72.80764 21888 ft 350 kts 241°
2026-05-06 15:12 41.87777 -72.83600 21886 ft 350 kts 241°
2026-05-06 15:12 41.86563 -72.86432 21884 ft 351 kts 241°
2026-05-06 15:12 41.85343 -72.89270 21893 ft 352 kts 241°
2026-05-06 15:12 41.84122 -72.92104 21888 ft 351 kts 241°
2026-05-06 15:13 41.82899 -72.94936 21889 ft 350 kts 241°
2026-05-06 15:13 41.81679 -72.97765 21903 ft 350 kts 240°
2026-05-06 15:13 41.80457 -73.00593 21893 ft 351 kts 240°
2026-05-06 15:13 41.79234 -73.03418 21886 ft 351 kts 240°
2026-05-06 15:14 41.78013 -73.06240 21795 ft 348 kts 240°
2026-05-06 15:14 41.76813 -73.09010 21539 ft 339 kts 240°
2026-05-06 15:14 41.75644 -73.11705 21260 ft 331 kts 240°
2026-05-06 15:14 41.74501 -73.14338 21012 ft 324 kts 240°
2026-05-06 15:15 41.73374 -73.16930 20759 ft 321 kts 240°
2026-05-06 15:15 41.72253 -73.19504 20513 ft 319 kts 240°
2026-05-06 15:15 41.71142 -73.22060 20269 ft 317 kts 240°
2026-05-06 15:15 41.70120 -73.24662 20021 ft 316 kts 246°
2026-05-06 15:16 41.69292 -73.27390 19782 ft 315 kts 246°
2026-05-06 15:16 41.68467 -73.30099 19554 ft 314 kts 246°
2026-05-06 15:16 41.67643 -73.32792 19324 ft 312 kts 246°
2026-05-06 15:16 41.66826 -73.35450 19041 ft 307 kts 245°
2026-05-06 15:17 41.66018 -73.38078 18621 ft 304 kts 245°
2026-05-06 15:17 41.65225 -73.40652 18188 ft 303 kts 245°
2026-05-06 15:17 41.64429 -73.43237 17812 ft 299 kts 245°
2026-05-06 15:17 41.63643 -73.45786 17391 ft 294 kts 244°
2026-05-06 15:18 41.62868 -73.48298 16973 ft 291 kts 244°
2026-05-06 15:18 41.62101 -73.50780 16559 ft 287 kts 244°
2026-05-06 15:18 41.61344 -73.53229 16136 ft 284 kts 244°
2026-05-06 15:18 41.60592 -73.55658 15724 ft 281 kts 244°
2026-05-06 15:19 41.59847 -73.58066 15317 ft 279 kts 244°
2026-05-06 15:19 41.59105 -73.60457 14912 ft 278 kts 244°
2026-05-06 15:19 41.58351 -73.62819 14509 ft 275 kts 240°
2026-05-06 15:19 41.57318 -73.64937 14109 ft 271 kts 231°
2026-05-06 15:20 41.56146 -73.66902 13709 ft 270 kts 231°
2026-05-06 15:20 41.54984 -73.68861 13255 ft 268 kts 231°
2026-05-06 15:20 41.53833 -73.70804 12855 ft 266 kts 231°
2026-05-06 15:20 41.52696 -73.72733 12470 ft 263 kts 231°
2026-05-06 15:21 41.51569 -73.74642 12070 ft 261 kts 230°
2026-05-06 15:21 41.50445 -73.76540 11686 ft 260 kts 230°
2026-05-06 15:21 41.49320 -73.78432 11300 ft 261 kts 229°
2026-05-06 15:21 41.48192 -73.80329 10916 ft 261 kts 229°
2026-05-06 15:22 41.47068 -73.82221 10524 ft 259 kts 230°
2026-05-06 15:22 41.45953 -73.84098 10189 ft 256 kts 229°
2026-05-06 15:22 41.44754 -73.85777 9989 ft 246 kts 214°
2026-05-06 15:22 41.43174 -73.86551 9842 ft 246 kts 189°
2026-05-06 15:23 41.41453 -73.86207 9708 ft 261 kts 164°
2026-05-06 15:23 41.39874 -73.84940 9375 ft 268 kts 155°
2026-05-06 15:23 41.38327 -73.83539 8994 ft 268 kts 154°
2026-05-06 15:23 41.36787 -73.82121 8602 ft 270 kts 154°
2026-05-06 15:24 41.35236 -73.80689 8218 ft 271 kts 154°
2026-05-06 15:24 41.33695 -73.79273 7982 ft 266 kts 156°
2026-05-06 15:24 41.32069 -73.78331 7756 ft 249 kts 176°
2026-05-06 15:24 41.30360 -73.78098 7565 ft 246 kts 182°
2026-05-06 15:25 41.28655 -73.77927 7370 ft 246 kts 182°
2026-05-06 15:25 41.26977 -73.77759 7179 ft 245 kts 182°
2026-05-06 15:25 41.25276 -73.77592 6986 ft 245 kts 182°
2026-05-06 15:25 41.23582 -73.77424 6781 ft 243 kts 182°
2026-05-06 15:26 41.21903 -73.77258 6590 ft 241 kts 182°
2026-05-06 15:26 41.20228 -73.77091 6402 ft 241 kts 182°
2026-05-06 15:26 41.18555 -73.76925 6209 ft 241 kts 182°
2026-05-06 15:26 41.16884 -73.76760 6007 ft 241 kts 182°
2026-05-06 15:27 41.15213 -73.76596 5807 ft 240 kts 182°
2026-05-06 15:27 41.13548 -73.76434 5611 ft 240 kts 182°
2026-05-06 15:27 41.11879 -73.76273 5397 ft 241 kts 182°
2026-05-06 15:27 41.10198 -73.76109 5202 ft 242 kts 182°
2026-05-06 15:28 41.08523 -73.75943 5064 ft 241 kts 182°
2026-05-06 15:28 41.06850 -73.75779 5013 ft 241 kts 183°
2026-05-06 15:28 41.05193 -73.75617 4661 ft 236 kts 182°
2026-05-06 15:28 41.03553 -73.75458 3946 ft 236 kts 182°
2026-05-06 15:29 41.01902 -73.75300 3533 ft 238 kts 183°
2026-05-06 15:29 41.00263 -73.75139 3323 ft 233 kts 182°
2026-05-06 15:29 40.98682 -73.74978 3193 ft 222 kts 182°
2026-05-06 15:29 40.97184 -73.74824 3090 ft 209 kts 183°
2026-05-06 15:30 40.95749 -73.74681 3009 ft 205 kts 183°
2026-05-06 15:30 40.94345 -73.74582 3035 ft 193 kts 190°
2026-05-06 15:30 40.93093 -73.75021 3014 ft 183 kts 211°
2026-05-06 15:30 40.92052 -73.75865 3007 ft 167 kts 214°
2026-05-06 15:31 40.91100 -73.76656 2864 ft 158 kts 214°
2026-05-06 15:31 40.90180 -73.77421 2688 ft 155 kts 215°
2026-05-06 15:31 40.89261 -73.78185 2491 ft 157 kts 214°
2026-05-06 15:32 40.87411 -73.79721 2063 ft 158 kts 213°
2026-05-06 15:32 40.86498 -73.80478 1854 ft 149 kts 213°
2026-05-06 15:32 40.85646 -73.81184 1686 ft 142 kts 213°
2026-05-06 15:32 40.84813 -73.81874 1482 ft 140 kts 213°
2026-05-06 15:33 40.83994 -73.82554 1294 ft 139 kts 213°
2026-05-06 15:33 40.83179 -73.83229 1085 ft 137 kts 212°
2026-05-06 15:33 40.82363 -73.83902 906 ft 140 kts 211°
2026-05-06 15:33 40.81540 -73.84575 710 ft 139 kts 211°
2026-05-06 15:34 40.80734 -73.85255 544 ft 137 kts 211°
2026-05-06 15:34 40.79921 -73.85931 362 ft 139 kts 210°
2026-05-06 15:34 40.79098 -73.86603 181 ft 137 kts 210°
2026-05-06 15:34 40.78293 -73.87275 28 ft 134 kts 211°
2026-05-06 15:35 40.77632 -73.87825 24 ft 77 kts 212°
2026-05-06 15:35 40.77413 -73.88005 22 ft 15 kts 212°
2026-05-06 15:35 40.77334 -73.88072 23 ft 12 kts 216°
2026-05-06 15:35 40.77288 -73.88159 22 ft 12 kts 252°
2026-05-06 15:36 40.77315 -73.88235 21 ft 9 kts 345°
2026-05-06 15:36 40.77381 -73.88248 20 ft 8 kts 354°
2026-05-06 15:36 40.77419 -73.88267 20 ft 7 kts 310°
2026-05-06 15:36 40.77416 -73.88311 19 ft 3 kts 239°
2026-05-06 15:37 40.77408 -73.88336 20 ft 3 kts 249°
2026-05-06 15:37 40.77405 -73.88346 20 ft 0 kts 248°